Location: Unspecified
(0.0000°N, 0.0000°E)
Time: 14:17:10
(UTC+00:00)

NRL adapter - Visible Passes

Search period start: 15 June 2025 00:00
Search period end: 25 June 2025 00:00
Orbit: 1083 x 1186 km, 90.0° (Epoch: 14 June)

Date Brightness Start Highest point End Pass type
(mag) Time Alt. Az. Time Alt. Az. Time Alt. Az.
15 Jun ? 20:21:44 84° S 20:22:01 90° WNW 20:29:14 10° N visible
16 Jun ? 19:46:01 44° ESE 19:47:06 48° E 19:53:57 10° NNE visible
16 Jun ? 21:34:02 17° W 21:34:32 17° W 21:38:53 10° WNW visible
17 Jun ? 19:10:16 22° ESE 19:12:12 24° E 19:17:44 10° NE visible
17 Jun ? 20:58:17 32° WSW 20:59:38 34° W 21:06:02 10° NNW visible
18 Jun ? 18:35:46 10° E 18:37:19 11° E 18:38:52 10° ENE visible
18 Jun ? 20:22:29 46° SSW 20:24:43 67° W 20:31:52 10° NNW visible
19 Jun ? 19:46:38 35° SSE 19:49:48 65° E 19:56:56 10° N visible
19 Jun ? 21:35:10 10° WSW 21:37:14 11° W 21:39:19 10° WNW visible
20 Jun ? 19:10:44 19° SE 19:14:53 33° E 19:21:11 10° NNE visible
20 Jun ? 20:58:45 17° SW 21:02:20 25° W 21:08:00 10° NW visible
21 Jun ? 18:35:49 10° ESE 18:40:00 16° E 18:44:10 10° NE visible
21 Jun ? 20:22:46 21° SSW 20:27:25 49° W 20:34:19 10° NNW visible
22 Jun ? 19:46:44 17° S 19:52:30 87° E 19:59:44 10° N visible
23 Jun ? 19:10:47 10° SSE 19:17:36 46° E 19:24:23 10° NNE visible
23 Jun ? 21:00:29 10° SW 21:05:01 18° W 21:09:35 10° NW visible
24 Jun ? 18:37:15 10° SE 18:42:41 23° E 18:48:06 10° NE visible
24 Jun ? 20:23:41 10° SSW 20:30:08 36° W 20:36:35 10° NNW visible
